Weather History for St. Inigoes, MD

Change the Weather History Date:

Tuesday, June 11, 2013

  Actual Average (KNHK) Record (KNHK)
Temperature  
Mean Temperature 78 °F -  
Max Temperature 84 °F 80 °F 98 °F (2000)
Min Temperature 72 °F 61 °F 51 °F (1988)
Cooling Degree Days 13    
Growing Degree Days 28 (Base 50)    
Moisture  
Dew Point 67 °F    
Average Humidity 74    
Maximum Humidity 88    
Minimum Humidity 53    
Precipitation  
Precipitation 0.03 in - - ()
Sea Level Pressure  
Sea Level Pressure 29.82 in    
Wind  
Wind Speed 10 mph (WSW)    
Max Wind Speed 17 mph    
Max Gust Speed 28 mph    
Visibility 10 miles    
Events Rain    
Averages and records for this station are not official NWS values.
T = Trace of Precipitation, MM = Missing Value Source: NWS Daily Summary

Daily Weather History Graph

Daily Weather History Graph

Search for Another Location

Airport:

Trip Planner

Search our weather history database for the weather conditions in past years. The results will help you decide how hot, cold, wet, or windy it might be!

Date:

Astronomy

Jun. 11, 2013 Rise Set
Actual Time 5:42 AM EDT 8:28 PM EDT
Civil Twilight 5:10 AM EDT 9:00 PM EDT
Nautical Twilight 4:31 AM EDT 9:39 PM EDT
Astronomical Twilight 3:46 AM EDT 10:24 PM EDT
Moon 8:21 AM EDT (6/11) 10:32 PM EDT (6/11)
Length of Visible Light 15h 49m
Length of Day
14h 46m
Waxing Crescent, 8% of the Moon is Illuminated
Jun 11
Waxing Crescent
Jun 16
First Quarter
Jun 23
Full
Jun 30
Last Quarter
Jul 8
New

Hourly Weather History & Observations

Time (EDT) Temp. Heat Index Dew Point Humidity Pressure Visibility Wind Dir Wind Speed Gust Speed Precip Events Conditions
12:08 AM 73.4 °F - 69.8 °F 88% 29.85 in 10.0 mi SW 6.9 mph - N/A   Mostly Cloudy
12:25 AM 73.4 °F - 69.8 °F 88% 29.84 in 10.0 mi SSW 16.1 mph 27.6 mph 0.03 in Rain Rain
12:53 AM 73.9 °F - 69.1 °F 85% 29.84 in 10.0 mi South 13.8 mph 21.9 mph 0.03 in   Overcast
1:53 AM 73.0 °F - 69.1 °F 87% 29.83 in 10.0 mi SSW 13.8 mph - N/A   Partly Cloudy
2:16 AM 73.4 °F - 69.8 °F 88% 29.82 in 10.0 mi SW 17.3 mph 21.9 mph N/A   Mostly Cloudy
2:53 AM 73.0 °F - 68.0 °F 84% 29.82 in 10.0 mi WSW 13.8 mph 21.9 mph N/A   Mostly Cloudy
3:35 AM 73.4 °F - 68.0 °F 83% 29.83 in 10.0 mi WSW 12.7 mph - N/A   Overcast
3:53 AM 73.0 °F - 68.0 °F 84% 29.83 in 10.0 mi WSW 12.7 mph - N/A   Overcast
4:53 AM 73.0 °F - 68.0 °F 84% 29.83 in 10.0 mi WSW 9.2 mph - N/A   Overcast
5:53 AM 72.0 °F - 68.0 °F 87% 29.83 in 10.0 mi WSW 9.2 mph - N/A   Overcast
6:53 AM 72.0 °F - 68.0 °F 87% 29.83 in 10.0 mi WSW 8.1 mph - N/A   Overcast
7:42 AM - - - N/A% 29.84 in 10.0 mi WSW 9.2 mph - N/A   Unknown
7:53 AM - - - N/A% 29.86 in 10.0 mi WSW 9.2 mph - N/A   Unknown
8:53 AM - - - N/A% 29.85 in 10.0 mi WSW 5.8 mph - N/A   Unknown
9:53 AM - - - N/A% 29.83 in 10.0 mi WSW 8.1 mph - N/A   Unknown
10:53 AM 75.9 °F - 68.0 °F 76% 29.82 in 10.0 mi SSW 11.5 mph - N/A   Clear
11:53 AM 79.0 °F - 66.9 °F 66% 29.82 in 10.0 mi WSW 12.7 mph - N/A   Mostly Cloudy
12:53 PM 81.0 °F 83.0 °F 66.0 °F 60% 29.81 in 10.0 mi West 8.1 mph - N/A   Partly Cloudy
1:53 PM 82.0 °F 84.1 °F 66.0 °F 58% 29.81 in 10.0 mi West 11.5 mph - N/A   Partly Cloudy
2:53 PM 82.0 °F 84.1 °F 66.0 °F 58% 29.80 in 10.0 mi WSW 12.7 mph - N/A   Clear
3:53 PM 82.9 °F 84.6 °F 64.9 °F 54% 29.79 in 10.0 mi West 10.4 mph - N/A   Clear
4:53 PM 84.0 °F 85.8 °F 64.9 °F 53% 29.78 in 10.0 mi West 8.1 mph - N/A   Clear
5:53 PM 81.0 °F 82.7 °F 64.9 °F 58% 29.78 in 10.0 mi West 6.9 mph - N/A   Scattered Clouds
6:53 PM 81.0 °F 83.3 °F 66.9 °F 62% 29.78 in 10.0 mi West 3.5 mph - N/A   Overcast
7:53 PM 80.1 °F 82.7 °F 68.0 °F 67% 29.80 in 10.0 mi West 4.6 mph - N/A   Mostly Cloudy
8:53 PM 78.1 °F - 66.9 °F 68% 29.81 in 10.0 mi West 5.8 mph - N/A   Partly Cloudy
9:53 PM 75.9 °F - 64.9 °F 69% 29.83 in 10.0 mi West 3.5 mph - N/A   Clear
10:53 PM 75.0 °F - 66.0 °F 73% 29.85 in 10.0 mi West 4.6 mph - N/A   Clear
11:53 PM 73.9 °F - 66.0 °F 76% 29.86 in 10.0 mi West 4.6 mph - N/A   Clear